Temp
72 73 73 73 72 73 73 75 74 75 75 74 74 74 74 74 75 75 74 72 70 70 73 74 74 75 75 74 74 74 75 75 74 74 74 74 73 73 73 73 72 73 72 73 73 73 73 73 74 73 74 74 74 72 75 78 79 79 77 76 74 74
70 73 73 72 71 71 71 73 73 74 74 74 75 75 75 75 75 72 70 69 69 69 69 72 73 76 75 75 75 74 75 74 74 74 74 73 74 73 73 73 73 73 73 73 73 71 72 73 74 73 74 73 71 73 76 78 78 77 77 75 74 73
71 73 74 71 70 70 70 71 73 74 74 75 76 76 74 73 72 71 69 70 69 68 70 70 72 76 76 75 74 74 74 74 74 74 73 73 73 73 73 73 73 73 73 72 72 72 74 74 72 74 73 72 72 74 78 77 77 77 76 75 73 74
72 73 73 70 69 69 70 71 73 74 74 75 75 75 72 71 70 69 68 69 68 69 69 68 75 77 77 74 73 74 74 74 74 74 73 73 73 73 73 73 73 73 73 74 73 74 77 77 75 72 72 72 74 77 78 78 78 77 75 76 74 74
73 74 73 70 70 70 69 71 73 73 74 75 75 72 71 70 69 69 70 69 69 69 69 70 71 72 72 74 73 73 73 73 73 72 73 72 70 71 72 73 73 72 72 74 76 76 77 78 76 75 74 75 76 77 78 77 78 77 75 73 72 73
74 73 73 70 72 71 71 72 72 73 74 74 74 72 72 70 69 69 69 69 69 68 69 70 70 70 70 70 73 73 73 73 72 70 72 70 69 69 71 72 74 75 73 75 76 77 79 78 77 76 77 76 77 76 78 77 77 74 73 72 72 73
71 72 71 72 73 73 73 73 73 74 73 72 69 69 72 71 70 70 69 70 68 68 68 69 69 69 69 70 70 70 70 70 69 67 69 68 69 69 70 71 72 73 74 76 79 78 79 80 78 80 77 78 77 78 77 77 76 74 73 72 72 73
72 70 71 73 73 74 74 74 73 74 69 68 68 69 70 71 71 70 71 70 70 68 68 69 69 69 69 70 69 69 69 69 69 68 68 68 68 68 70 71 72 75 75 77 79 79 78 80 79 78 79 78 78 78 77 77 76 75 73 71 72 73
74 71 73 72 74 72 73 74 72 70 67 69 68 68 69 72 71 72 71 71 70 69 69 70 71 71 71 70 69 69 69 69 69 69 69 69 70 69 68 69 69 69 72 73 75 76 78 79 79 78 78 76 77 78 72 70 74 75 74 72 72 72
74 74 74 76 75 74 73 72 70 69 68 69 67 68 71 72 72 73 72 71 72 71 70 71 71 71 72 70 70 71 70 69 69 69 70 70 69 69 68 68 69 70 71 73 73 76 75 77 79 78 78 79 75 73 67 69 72 75 75 73 71 71
74 75 75 76 74 74 73 70 69 69 69 68 68 70 73 73 73 73 72 72 73 72 72 72 72 71 71 71 70 70 70 71 70 70 71 70 69 70 69 68 68 69 70 70 69 71 75 76 78 79 77 79 73 69 72 70 71 73 75 72 72 71
75 75 75 75 74 74 73 72 68 69 69 70 72 73 73 72 71 71 72 71 71 72 72 72 72 72 71 70 69 70 72 71 70 71 72 70 70 70 70 70 70 71 69 68 67 69 71 73 74 78 79 78 74 69 71 68 67 68 69 74 73 72
73 74 73 72 73 73 74 73 69 68 71 73 74 73 72 71 70 71 72 72 72 73 73 72 71 71 71 69 69 68 70 71 72 70 71 72 73 71 71 70 70 71 68 67 68 68 72 72 73 75 76 74 72 74 71 67 67 68 68 73 73 72
74 73 73 72 72 72 72 72 72 72 74 73 72 71 71 71 72 73 73 74 73 73 73 73 73 72 69 66 67 68 68 70 71 71 70 70 71 71 70 71 71 71 69 67 67 68 68 68 67 67 70 73 68 70 71 68 68 68 68 69 70 71
73 72 72 72 71 70 71 74 73 73 73 73 72 70 71 73 73 74 75 74 74 73 74 73 73 72 70 68 67 69 70 70 71 71 70 69 69 70 69 70 69 68 67 67 67 66 67 67 66 65 66 68 70 73 69 67 69 71 71 69 68 70
72 72 73 73 72 71 72 72 72 72 71 71 70 71 71 73 75 74 75 74 75 74 74 74 74 74 71 69 69 69 68 68 71 70 70 69 70 69 68 68 68 67 66 66 66 65 65 65 66 65 65 65 68 72 69 69 70 70 71 71 71 68
71 72 72 72 71 70 70 70 70 70 70 70 69 69 72 74 75 75 74 75 74 74 75 74 74 74 71 69 70 67 68 69 70 70 69 69 69 69 69 69 66 66 66 65 65 66 65 64 65 65 65 65 67 70 70 69 69 69 71 70 70 70
71 71 71 70 70 69 70 69 68 68 69 68 69 71 73 75 76 76 76 76 75 75 74 74 74 73 70 69 69 67 68 69 70 69 69 69 69 70 69 69 67 66 66 65 64 64 64 65 66 65 65 65 67 68 68 69 69 69 70 71 70 69
71 70 70 70 70 69 69 68 67 69 69 70 71 72 75 76 76 76 76 76 75 74 74 72 74 73 69 68 69 68 69 69 69 68 68 68 66 68 68 67 67 67 67 66 65 65 65 64 65 65 65 65 65 66 67 69 71 70 70 71 69 68
71 70 70 69 69 68 68 67 68 69 69 70 72 75 76 76 77 75 77 76 76 74 76 74 74 73 71 70 68 69 68 69 69 68 67 66 65 65 66 66 67 67 66 66 66 65 65 64 64 63 63 64 65 65 66 67 69 70 71 71 68 67
70 70 69 69 69 69 68 68 69 69 69 73 74 74 75 76 77 76 77 78 77 76 76 75 74 71 70 70 69 69 68 67 68 69 68 67 67 66 66 67 67 66 66 65 65 66 66 66 63 61 62 64 64 66 66 68 69 70 71 70 70 69
70 70 70 69 69 70 71 71 71 73 74 74 74 74 73 74 75 77 76 76 76 76 75 74 73 72 70 70 69 68 68 66 67 68 67 68 68 68 68 68 68 66 68 66 66 67 67 66 61 60 60 60 62 64 65 67 69 71 71 70 67 65
70 70 71 71 70 71 73 74 73 74 74 75 78 75 77 76 76 77 75 76 76 75 76 76 75 73 71 71 70 69 67 67 68 68 67 66 67 68 68 68 68 67 65 67 66 66 65 66 61 63 63 61 58 59 62 64 67 69 69 64 66 66
71 71 70 70 71 71 72 71 71 75 75 75 74 75 75 75 76 76 75 76 76 74 77 76 77 77 73 72 68 68 70 69 68 69 68 67 67 67 67 67 68 68 66 63 66 64 66 66 65 62 59 59 59 59 57 57 62 65 67 66 65 67
70 70 70 69 69 69 68 67 67 73 73 73 74 73 73 72 74 74 75 74 74 76 76 76 77 77 76 73 71 70 70 68 69 70 70 69 68 68 68 68 69 67 66 64 62 62 63 65 65 68 63 59 57 57 57 59 62 61 65 64 65 67
70 70 69 69 68 67 65 63 64 69 68 69 69 69 69 69 71 72 74 74 77 77 77 77 76 76 76 74 73 72 71 71 69 69 70 69 70 70 69 69 69 68 66 67 64 63 62 65 66 67 68 66 64 60 58 60 60 55 63 64 63 66
70 69 69 68 68 67 65 63 66 72 71 70 69 71 72 73 72 72 74 73 74 75 76 75 75 75 74 75 74 74 73 73 71 70 70 69 69 70 72 72 71 68 69 67 66 63 63 62 65 67 68 67 66 66 65 61 56 59 57 61 65 66
68 67 67 67 67 66 64 63 65 70 72 71 71 70 72 72 73 73 72 73 73 73 76 75 75 76 75 74 75 74 75 73 73 74 73 71 70 71 72 73 71 70 70 68 67 64 62 63 63 63 65 65 65 66 66 66 66 62 60 57 59 66
66 66 66 67 66 65 64 63 62 62 68 71 71 72 72 72 71 72 72 73 73 74 73 74 75 74 75 75 73 73 73 73 72 73 74 73 71 73 72 71 69 69 69 68 67 66 65 64 63 62 62 62 64 65 64 65 65 63 60 59 58 59
65 65 66 66 66 65 63 63 62 62 68 70 71 71 71 70 70 72 72 71 71 71 71 71 72 74 74 74 74 74 73 73 72 72 72 72 71 71 71 70 70 69 69 67 68 67 66 64 65 64 63 62 60 62 60 60 61 61 61 62 58 60
64 64 66 65 65 63 63 63 63 63 69 70 70 70 69 69 70 71 70 71 71 71 72 71 72 73 73 73 72 72 72 72 72 72 72 73 71 71 70 69 69 70 69 68 67 67 66 66 64 64 64 62 61 61 59 58 60 61 60 59 61 61
63 64 65 65 64 63 63 63 64 65 69 71 71 70 69 68 70 70 70 70 71 71 70 71 71 70 70 71 71 71 71 71 71 71 71 71 71 72 71 71 69 69 69 67 68 67 66 65 65 65 64 64 63 62 62 62 61 61 61 61 63 61
63 64 64 64 64 64 63 63 64 66 70 71 71 71 71 70 71 70 71 70 70 69 70 70 70 69 71 71 71 70 70 69 69 70 70 72 71 71 70 70 70 69 69 68 66 67 65 66 66 65 64 65 64 64 63 64 63 62 62 62 64 63
63 65 65 64 64 64 64 64 65 69 71 71 70 71 71 71 72 71 72 71 71 70 70 69 69 69 71 71 70 70 70 70 70 70 70 70 70 71 71 72 70 69 69 68 68 67 66 67 67 67 68 66 67 66 65 65 65 63 62 62 63 64
64 65 64 64 64 64 65 66 67 71 71 71 71 71 71 73 72 72 72 72 71 72 70 70 69 69 70 70 70 70 70 69 69 69 70 71 72 70 69 70 70 68 69 69 68 67 67 68 68 69 68 68 68 67 67 67 67 66 67 66 67 66
65 65 65 65 66 66 66 68 69 70 71 71 72 72 71 72 71 72 71 71 71 71 70 69 69 69 70 70 69 69 69 69 69 70 70 71 70 69 68 68 68 68 68 72 68 68 67 67 67 68 67 67 67 67 67 69 70 67 69 69 68 68
67 67 67 67 67 68 68 69 68 69 70 70 71 71 70 71 71 71 71 71 71 70 69 69 69 70 69 69 69 68 68 68 68 69 68 69 69 69 68 68 68 67 66 67 67 67 66 66 66 67 66 67 66 66 66 67 68 67 68 68 68 66
MSLP
1013.20 1013.32 1013.64 1014.00 1014.40 1014.36 1014.32 1014.32 1014.48 1014.64 1014.84 1015.00 1015.16 1015.36 1015.56 1015.72 1015.96 1016.16 1016.40 1016.92 1017.44 1017.60 1017.32 1017.04 1017.12 1017.28 1017.36 1017.40 1017.44 1017.48 1017.56 1017.64 1017.68 1017.76 1017.84 1017.88 1017.92 1017.92 1017.96 1017.96 1018.00 1018.00 1018.04 1018.00 1018.04 1018.04 1018.00 1017.96 1017.92 1017.84 1017.64 1017.56 1017.52 1017.40 1017.08 1017.00 1016.84 1017.28 1017.68 1018.04 1018.36 1018.60
1013.20 1013.56 1013.80 1014.28 1014.72 1014.48 1014.28 1014.52 1014.64 1014.72 1014.88 1015.12 1015.32 1015.52 1015.64 1015.80 1016.08 1016.56 1017.04 1017.24 1017.48 1017.44 1017.32 1017.20 1017.16 1017.24 1017.32 1017.40 1017.48 1017.52 1017.60 1017.68 1017.76 1017.88 1018.00 1018.12 1018.16 1018.16 1018.16 1018.12 1018.12 1018.08 1018.12 1018.16 1018.20 1018.20 1018.08 1018.04 1018.00 1017.96 1017.80 1017.68 1017.68 1017.44 1017.08 1016.92 1017.12 1017.56 1017.88 1018.20 1018.44 1018.72
1013.44 1013.60 1013.84 1014.56 1014.76 1014.32 1014.44 1014.64 1014.64 1014.68 1014.84 1015.04 1015.32 1015.48 1015.76 1016.00 1016.40 1016.76 1017.04 1017.24 1017.08 1016.88 1016.80 1017.04 1017.16 1017.16 1017.16 1017.28 1017.48 1017.56 1017.64 1017.76 1017.92 1018.08 1018.24 1018.32 1018.36 1018.32 1018.28 1018.24 1018.16 1018.12 1018.16 1018.24 1018.28 1018.16 1017.96 1017.92 1018.00 1017.92 1017.88 1017.80 1017.72 1017.48 1017.12 1017.04 1017.32 1017.60 1018.00 1018.24 1018.52 1018.76
1013.40 1013.52 1013.96 1014.64 1014.64 1014.44 1014.64 1014.68 1014.64 1014.68 1014.84 1015.00 1015.24 1015.56 1015.92 1016.36 1016.64 1016.72 1016.72 1016.72 1016.88 1016.72 1017.08 1017.28 1017.12 1017.04 1017.08 1017.28 1017.52 1017.64 1017.72 1017.88 1018.00 1018.16 1018.24 1018.28 1018.32 1018.28 1018.20 1018.20 1018.20 1018.16 1018.20 1018.20 1018.16 1018.00 1017.68 1017.56 1017.72 1017.84 1017.84 1017.80 1017.64 1017.36 1017.20 1017.20 1017.40 1017.80 1018.04 1018.32 1018.56 1018.72
1013.16 1013.52 1014.00 1014.52 1014.56 1014.48 1014.84 1014.76 1014.68 1014.80 1014.92 1015.04 1015.28 1015.76 1016.16 1016.48 1016.60 1016.56 1016.32 1016.32 1016.52 1016.72 1017.12 1017.16 1017.08 1017.04 1017.12 1017.28 1017.48 1017.68 1017.76 1017.84 1017.88 1018.00 1017.88 1017.96 1017.96 1017.88 1018.04 1018.20 1018.20 1018.24 1018.24 1018.08 1017.92 1017.72 1017.52 1017.28 1017.40 1017.60 1017.68 1017.60 1017.48 1017.28 1017.16 1017.24 1017.44 1017.80 1018.12 1018.40 1018.64 1018.80
1013.32 1013.80 1014.16 1014.48 1014.40 1014.52 1014.84 1014.88 1014.96 1014.96 1015.00 1015.12 1015.44 1015.92 1016.24 1016.44 1016.48 1016.36 1016.20 1016.20 1016.16 1016.52 1016.76 1016.88 1016.92 1017.04 1017.24 1017.40 1017.48 1017.60 1017.68 1017.72 1017.80 1017.76 1017.60 1017.56 1017.56 1017.80 1018.08 1018.24 1018.16 1018.12 1018.04 1017.80 1017.60 1017.28 1016.96 1016.96 1017.20 1017.24 1017.36 1017.32 1017.32 1017.32 1017.28 1017.32 1017.60 1018.04 1018.36 1018.64 1018.84 1018.96
1013.56 1013.80 1014.08 1014.00 1014.16 1014.36 1014.64 1014.72 1014.84 1014.88 1015.20 1015.60 1016.32 1016.40 1016.28 1016.32 1016.32 1016.28 1016.24 1016.16 1016.36 1016.48 1016.36 1016.48 1016.80 1017.04 1017.40 1017.56 1017.76 1017.84 1018.00 1018.00 1018.04 1018.08 1017.92 1017.80 1017.88 1017.92 1018.08 1018.04 1018.12 1018.04 1017.80 1017.64 1017.24 1016.96 1016.84 1016.84 1016.92 1017.12 1017.16 1017.28 1017.32 1017.36 1017.40 1017.56 1017.84 1018.24 1018.52 1018.80 1019.00 1019.04
1013.36 1013.68 1013.88 1013.88 1014.04 1014.36 1014.48 1014.60 1014.76 1014.96 1016.08 1016.36 1016.40 1016.12 1016.00 1016.08 1016.28 1016.32 1016.20 1016.28 1016.44 1016.64 1016.84 1016.96 1017.16 1017.40 1017.64 1017.76 1018.00 1018.04 1018.00 1018.12 1018.20 1018.12 1017.88 1017.88 1018.04 1018.00 1018.00 1017.88 1017.96 1017.92 1017.80 1017.56 1017.20 1016.92 1016.88 1016.80 1016.92 1017.00 1017.12 1017.28 1017.32 1017.28 1017.48 1017.64 1017.96 1018.36 1018.72 1018.92 1019.08 1019.20
1013.44 1014.04 1013.96 1013.96 1014.12 1014.44 1014.52 1014.56 1014.96 1015.64 1016.32 1015.92 1015.72 1015.88 1015.92 1016.00 1016.36 1016.44 1016.48 1016.64 1016.76 1016.88 1017.00 1017.12 1017.36 1017.52 1017.60 1017.84 1017.96 1018.12 1018.12 1018.20 1018.24 1018.12 1017.92 1017.96 1017.92 1018.04 1018.12 1018.16 1018.36 1018.36 1018.00 1017.72 1017.32 1017.04 1016.80 1016.84 1016.80 1016.96 1017.16 1017.48 1017.60 1017.40 1018.00 1018.28 1018.24 1018.56 1018.88 1019.08 1019.24 1019.40
1013.44 1013.56 1013.64 1013.64 1013.88 1014.28 1014.48 1014.80 1015.20 1015.76 1015.72 1015.32 1015.80 1015.76 1015.72 1015.92 1016.20 1016.48 1016.68 1016.76 1016.72 1016.68 1016.92 1017.12 1017.28 1017.44 1017.60 1017.84 1017.88 1017.88 1018.04 1018.08 1018.08 1018.04 1018.00 1018.24 1018.16 1018.12 1018.28 1018.40 1018.44 1018.32 1018.12 1017.88 1017.56 1017.20 1016.92 1017.00 1016.88 1017.04 1017.12 1017.20 1017.72 1018.44 1019.08 1018.56 1018.56 1018.72 1019.12 1019.24 1019.40 1019.56
1013.28 1013.28 1013.36 1013.56 1013.76 1014.08 1014.32 1014.80 1015.40 1015.72 1015.40 1015.68 1015.72 1015.80 1015.76 1015.88 1016.12 1016.32 1016.48 1016.52 1016.56 1016.64 1016.84 1016.96 1017.04 1017.28 1017.40 1017.56 1017.72 1017.80 1017.92 1017.96 1018.12 1018.16 1018.04 1018.12 1018.12 1018.12 1018.12 1018.12 1018.20 1018.16 1018.08 1017.96 1017.76 1017.40 1017.28 1017.20 1017.00 1017.12 1017.28 1017.36 1017.92 1018.28 1018.76 1018.92 1019.04 1019.00 1019.24 1019.36 1019.44 1019.60
1012.92 1013.00 1013.24 1013.52 1013.72 1014.04 1014.44 1014.92 1015.52 1015.40 1015.52 1015.56 1015.48 1015.56 1015.76 1015.96 1016.28 1016.40 1016.40 1016.48 1016.56 1016.72 1016.80 1016.84 1016.96 1017.12 1017.44 1017.60 1017.68 1017.76 1017.68 1017.76 1017.92 1017.80 1017.76 1017.92 1017.88 1017.84 1017.80 1017.76 1017.84 1017.84 1017.88 1017.92 1017.96 1017.64 1017.72 1017.48 1017.44 1017.48 1017.32 1017.52 1017.64 1017.76 1018.72 1019.56 1019.44 1019.56 1019.40 1019.24 1019.48 1019.76
1012.72 1012.92 1013.40 1013.60 1013.72 1014.00 1014.28 1015.04 1016.08 1015.96 1015.60 1015.40 1015.24 1015.40 1015.84 1016.12 1016.32 1016.36 1016.32 1016.40 1016.60 1016.64 1016.64 1016.84 1017.04 1017.24 1017.56 1017.88 1017.96 1017.88 1017.68 1017.60 1017.52 1017.52 1017.56 1017.64 1017.60 1017.64 1017.56 1017.64 1017.72 1017.68 1017.92 1017.92 1018.00 1018.08 1017.92 1018.00 1017.92 1017.96 1018.04 1018.24 1018.24 1018.08 1018.96 1019.60 1019.36 1018.84 1018.92 1019.24 1019.60 1019.76
1013.08 1013.20 1013.44 1013.60 1013.64 1013.96 1014.36 1014.60 1015.12 1015.40 1015.20 1015.16 1015.28 1015.52 1015.76 1015.88 1015.96 1016.00 1016.16 1016.24 1016.48 1016.56 1016.64 1016.72 1016.92 1017.28 1017.88 1018.28 1017.88 1017.92 1018.16 1017.76 1017.52 1017.60 1017.64 1017.68 1017.72 1017.72 1017.68 1017.64 1017.64 1017.72 1017.96 1018.12 1018.32 1018.36 1018.40 1018.60 1018.44 1018.48 1018.84 1018.76 1019.20 1018.68 1018.92 1019.48 1019.32 1019.28 1019.60 1019.52 1019.56 1019.68
1013.32 1013.56 1013.60 1013.72 1013.76 1013.84 1013.96 1014.16 1014.56 1014.76 1014.88 1015.00 1015.04 1015.32 1015.48 1015.52 1015.72 1015.80 1015.92 1016.16 1016.32 1016.52 1016.64 1016.72 1016.88 1017.16 1017.80 1018.08 1017.84 1017.96 1017.88 1017.72 1017.60 1017.64 1017.76 1017.80 1017.80 1017.76 1017.76 1017.80 1017.88 1018.16 1018.32 1018.40 1018.32 1018.64 1018.84 1019.04 1019.20 1019.20 1020.00 1019.84 1019.32 1019.08 1019.48 1020.16 1019.80 1019.60 1019.68 1019.76 1019.76 1019.96
1013.32 1013.60 1013.76 1013.76 1013.68 1013.68 1013.84 1014.16 1014.44 1014.56 1014.72 1014.76 1014.92 1015.04 1015.24 1015.32 1015.44 1015.64 1015.88 1016.16 1016.32 1016.52 1016.60 1016.72 1016.84 1017.00 1017.32 1017.36 1017.28 1017.68 1017.52 1017.64 1017.64 1017.76 1017.80 1017.84 1017.80 1017.92 1017.88 1017.96 1018.12 1018.36 1018.68 1018.76 1018.64 1018.60 1019.00 1019.32 1019.88 1020.92 1021.00 1020.56 1019.68 1019.16 1019.68 1019.96 1019.88 1019.64 1019.72 1019.84 1020.00 1020.36
1013.24 1013.48 1013.80 1013.92 1013.92 1014.12 1014.24 1014.48 1014.64 1014.64 1014.64 1014.84 1015.04 1015.12 1015.08 1015.20 1015.36 1015.68 1015.88 1016.04 1016.24 1016.40 1016.48 1016.56 1016.68 1016.84 1017.12 1017.04 1017.12 1017.72 1017.80 1017.72 1017.64 1017.76 1017.84 1017.88 1017.92 1017.88 1017.92 1018.00 1018.24 1018.40 1018.56 1018.88 1018.92 1019.00 1019.16 1019.72 1019.92 1020.24 1020.92 1020.24 1019.72 1019.60 1019.64 1019.68 1019.80 1019.72 1019.68 1019.92 1020.08 1020.20
1013.20 1013.28 1013.60 1013.88 1014.00 1014.20 1014.48 1014.68 1014.88 1014.84 1014.64 1014.72 1015.00 1015.00 1015.00 1015.00 1015.24 1015.52 1015.72 1016.04 1016.28 1016.44 1016.56 1016.60 1016.72 1016.84 1017.24 1017.12 1017.24 1017.72 1017.68 1017.68 1017.48 1017.64 1017.76 1017.80 1017.96 1017.92 1017.92 1018.04 1018.32 1018.52 1018.64 1018.80 1019.04 1019.32 1019.60 1019.76 1019.96 1020.20 1020.64 1020.52 1020.04 1019.68 1019.60 1019.56 1019.72 1019.76 1019.80 1019.96 1020.04 1020.20
1013.24 1013.32 1013.64 1013.88 1013.96 1014.16 1014.56 1014.88 1014.92 1014.80 1014.80 1014.76 1014.72 1014.72 1014.72 1014.88 1015.12 1015.44 1015.80 1016.08 1016.40 1016.52 1016.68 1016.96 1016.80 1016.84 1017.12 1017.16 1017.20 1017.60 1017.64 1017.64 1017.64 1017.68 1017.72 1017.92 1018.12 1018.12 1018.20 1018.28 1018.44 1018.68 1018.64 1018.84 1019.04 1019.28 1019.44 1019.72 1020.00 1020.20 1020.64 1020.32 1019.96 1019.88 1019.68 1019.48 1019.52 1019.72 1019.84 1019.96 1020.08 1020.24
1013.20 1013.44 1013.68 1014.00 1014.16 1014.36 1014.52 1015.00 1015.00 1014.88 1014.96 1014.96 1014.88 1014.84 1014.84 1015.08 1015.28 1015.64 1015.84 1016.08 1016.36 1016.52 1016.56 1016.76 1016.80 1016.84 1017.08 1017.20 1017.32 1017.48 1017.48 1017.48 1017.64 1017.72 1017.92 1018.04 1018.24 1018.28 1018.40 1018.44 1018.48 1018.64 1018.84 1018.88 1018.84 1019.04 1019.44 1019.88 1020.28 1020.56 1021.20 1020.20 1020.24 1020.20 1019.88 1019.88 1019.76 1019.80 1019.84 1019.92 1020.04 1020.20
1013.24 1013.40 1013.80 1014.24 1014.44 1014.56 1014.96 1015.12 1015.04 1015.28 1015.44 1015.20 1015.16 1015.12 1015.28 1015.32 1015.48 1015.64 1015.80 1016.04 1016.24 1016.40 1016.52 1016.64 1016.76 1016.96 1017.04 1017.08 1017.16 1017.36 1017.52 1017.60 1017.56 1017.64 1017.80 1017.96 1017.96 1018.12 1018.12 1018.12 1018.28 1018.44 1018.80 1019.00 1019.08 1019.00 1019.28 1019.48 1020.28 1021.16 1021.60 1020.48 1020.28 1020.56 1020.20 1020.00 1019.92 1019.84 1019.84 1019.84 1019.84 1020.12
1013.16 1013.48 1013.88 1014.12 1014.28 1014.40 1014.44 1014.64 1015.08 1015.32 1015.16 1015.16 1015.36 1015.48 1015.64 1015.64 1015.72 1015.80 1015.92 1016.04 1016.16 1016.28 1016.48 1016.64 1016.92 1017.04 1017.08 1017.16 1017.28 1017.32 1017.52 1017.56 1017.56 1017.56 1017.80 1017.84 1017.88 1017.96 1018.04 1018.12 1018.24 1018.56 1018.44 1018.76 1019.08 1019.12 1019.28 1019.60 1020.84 1021.40 1021.40 1021.04 1020.48 1020.44 1020.20 1020.04 1020.00 1019.96 1019.96 1020.16 1020.56 1020.92
1013.20 1013.64 1013.92 1014.08 1014.20 1014.56 1014.56 1014.60 1014.72 1014.88 1014.96 1015.20 1014.92 1015.04 1015.36 1015.64 1015.76 1016.00 1016.08 1016.20 1016.32 1016.40 1016.52 1016.64 1016.72 1016.92 1017.20 1017.20 1017.24 1017.28 1017.44 1017.44 1017.44 1017.48 1017.68 1017.80 1017.88 1018.00 1017.96 1018.00 1018.16 1018.48 1018.76 1018.68 1019.00 1019.16 1019.20 1019.36 1020.24 1020.36 1020.48 1020.80 1021.08 1021.16 1020.72 1020.44 1020.12 1020.20 1020.48 1020.68 1020.48 1020.80
1013.52 1013.80 1014.20 1014.36 1014.56 1014.88 1015.00 1015.20 1015.36 1014.96 1014.88 1015.08 1015.40 1015.32 1015.52 1015.64 1015.88 1016.08 1016.32 1016.24 1016.40 1016.44 1016.44 1016.56 1016.64 1016.76 1017.08 1017.20 1017.36 1017.40 1017.32 1017.32 1017.40 1017.36 1017.48 1017.76 1017.84 1017.96 1018.04 1018.04 1018.12 1018.32 1018.68 1019.24 1019.04 1019.44 1019.36 1019.32 1019.56 1019.96 1021.12 1021.00 1021.00 1021.00 1021.52 1021.48 1021.12 1020.96 1020.64 1020.72 1021.04 1021.16
1013.80 1014.16 1014.40 1014.80 1015.08 1015.28 1015.56 1016.52 1017.12 1015.48 1015.28 1015.44 1015.52 1015.84 1016.08 1016.32 1016.20 1016.24 1016.40 1016.52 1016.68 1016.56 1016.64 1016.76 1016.64 1016.60 1016.84 1017.12 1017.28 1017.36 1017.32 1017.36 1017.40 1017.28 1017.32 1017.52 1017.68 1017.64 1017.76 1017.88 1018.00 1018.36 1018.72 1019.04 1019.36 1019.40 1019.72 1019.72 1019.64 1019.28 1019.92 1020.80 1021.28 1021.44 1021.32 1021.32 1021.08 1021.40 1020.76 1021.00 1021.08 1021.16
1014.00 1014.40 1014.84 1015.04 1015.16 1015.32 1015.72 1016.48 1017.28 1016.32 1016.52 1016.60 1016.80 1016.72 1016.88 1016.88 1016.76 1016.68 1016.68 1016.48 1016.52 1016.52 1016.68 1016.76 1016.76 1016.84 1016.88 1016.92 1016.96 1017.04 1017.12 1017.24 1017.32 1017.28 1017.28 1017.40 1017.52 1017.56 1017.72 1017.84 1018.00 1018.28 1018.68 1018.72 1019.12 1019.28 1019.72 1019.64 1019.36 1019.28 1019.28 1019.60 1019.88 1020.52 1021.00 1020.92 1021.00 1022.28 1021.08 1020.92 1021.28 1021.44
1014.04 1014.48 1014.72 1014.88 1015.08 1015.32 1015.44 1015.48 1016.52 1016.36 1016.48 1016.68 1016.88 1016.64 1016.36 1016.32 1016.44 1016.44 1016.40 1016.60 1016.68 1016.60 1016.72 1016.92 1017.00 1017.04 1017.08 1016.96 1016.88 1016.80 1016.76 1016.84 1017.00 1017.12 1017.08 1017.32 1017.52 1017.56 1017.52 1017.60 1017.80 1018.28 1018.36 1018.64 1019.04 1019.40 1019.40 1019.20 1019.24 1019.32 1019.44 1019.60 1019.56 1019.56 1019.72 1020.64 1021.56 1021.36 1021.96 1021.52 1021.32 1021.16
1014.08 1014.40 1014.56 1014.72 1015.00 1015.12 1015.48 1015.92 1016.92 1016.56 1016.32 1016.48 1016.48 1016.64 1016.44 1016.40 1016.28 1016.40 1016.60 1016.72 1016.72 1016.68 1016.64 1016.84 1016.96 1017.00 1017.00 1017.00 1016.92 1016.84 1016.68 1016.64 1016.64 1016.60 1016.72 1017.04 1017.24 1017.24 1017.20 1017.32 1017.64 1017.88 1018.04 1018.44 1018.80 1019.24 1019.56 1019.36 1019.72 1019.88 1019.76 1020.00 1020.00 1019.84 1019.88 1019.96 1020.08 1020.68 1021.16 1022.16 1022.16 1021.44
1013.92 1014.16 1014.48 1014.64 1014.80 1015.28 1015.28 1015.76 1017.24 1018.12 1017.28 1016.16 1016.28 1016.40 1016.32 1016.32 1016.52 1016.52 1016.76 1016.64 1016.64 1016.64 1016.76 1016.84 1016.92 1017.04 1017.00 1016.96 1016.92 1016.92 1016.80 1016.72 1016.56 1016.44 1016.56 1016.84 1016.96 1017.04 1017.24 1017.44 1017.72 1017.88 1018.12 1018.40 1018.64 1018.96 1019.28 1019.44 1019.60 1020.04 1020.08 1020.24 1020.12 1020.16 1020.16 1020.20 1020.24 1020.32 1021.00 1021.72 1022.28 1022.48
1013.68 1013.92 1014.12 1014.36 1014.64 1014.96 1014.52 1015.04 1016.56 1017.76 1017.12 1016.32 1016.32 1016.36 1016.36 1016.60 1016.68 1016.68 1016.84 1016.80 1016.76 1016.84 1016.96 1017.08 1017.04 1017.00 1017.00 1017.04 1016.96 1016.84 1016.92 1016.88 1016.76 1016.72 1016.76 1016.96 1017.16 1017.32 1017.44 1017.56 1017.64 1017.84 1018.00 1018.52 1018.56 1018.96 1019.04 1019.20 1019.36 1019.56 1019.84 1020.24 1020.72 1020.48 1020.64 1020.76 1020.76 1020.84 1020.92 1021.12 1022.08 1022.52
1013.00 1013.16 1013.44 1013.84 1014.52 1014.60 1014.24 1014.68 1015.76 1016.32 1016.28 1016.16 1016.28 1016.44 1016.68 1016.76 1016.76 1016.84 1017.00 1016.96 1016.92 1016.88 1016.88 1017.12 1017.24 1017.24 1017.20 1017.16 1017.08 1017.00 1017.00 1016.92 1016.84 1016.84 1016.88 1017.00 1017.16 1017.32 1017.52 1017.76 1017.88 1017.88 1018.04 1018.40 1018.60 1018.72 1018.92 1019.04 1019.24 1019.44 1019.68 1020.04 1020.36 1020.40 1020.72 1021.04 1020.92 1020.92 1021.00 1021.44 1021.60 1022.00
1013.28 1013.04 1013.08 1013.44 1014.08 1014.08 1014.48 1015.16 1015.56 1015.80 1016.04 1015.88 1016.12 1016.48 1016.72 1016.84 1016.80 1016.96 1016.96 1016.96 1016.80 1016.84 1017.04 1017.12 1017.24 1017.44 1017.44 1017.24 1017.16 1017.12 1017.00 1016.96 1017.04 1017.04 1017.08 1017.00 1017.04 1017.16 1017.40 1017.56 1017.76 1017.96 1018.16 1018.32 1018.44 1018.68 1018.88 1019.20 1019.36 1019.52 1019.72 1020.00 1020.20 1020.00 1020.32 1020.60 1020.64 1020.76 1020.88 1021.00 1021.04 1021.64
1013.28 1013.24 1013.36 1013.52 1013.56 1013.64 1014.24 1014.84 1015.08 1015.32 1015.56 1015.60 1015.96 1016.28 1016.52 1016.64 1016.60 1016.80 1016.80 1016.84 1016.92 1017.04 1017.12 1017.28 1017.40 1017.60 1017.52 1017.24 1017.04 1017.04 1017.12 1017.24 1017.28 1017.20 1017.16 1017.12 1017.12 1017.24 1017.48 1017.64 1017.76 1017.96 1018.12 1018.40 1018.60 1018.80 1018.96 1019.04 1019.16 1019.40 1019.72 1019.76 1020.40 1020.36 1020.40 1020.20 1020.40 1020.52 1020.68 1020.60 1020.72 1021.24
1013.40 1013.36 1013.48 1013.84 1013.80 1013.84 1014.16 1014.52 1014.60 1014.68 1014.84 1015.28 1015.76 1016.04 1016.32 1016.48 1016.52 1016.56 1016.56 1016.68 1016.72 1016.84 1017.08 1017.28 1017.44 1017.56 1017.36 1017.16 1017.08 1017.00 1017.00 1017.12 1017.20 1017.28 1017.28 1017.24 1017.16 1017.24 1017.44 1017.68 1017.88 1018.08 1018.28 1018.44 1018.44 1018.64 1018.80 1018.84 1018.96 1019.00 1019.12 1019.60 1019.96 1020.20 1020.16 1019.84 1019.96 1020.24 1020.48 1020.64 1020.68 1020.60
1013.52 1013.64 1013.80 1014.00 1014.20 1014.36 1014.44 1014.40 1014.52 1014.36 1014.60 1014.92 1015.36 1015.68 1016.00 1016.12 1016.32 1016.44 1016.44 1016.56 1016.52 1016.64 1016.96 1017.24 1017.44 1017.44 1017.32 1017.24 1017.12 1017.04 1017.04 1017.16 1017.32 1017.40 1017.40 1017.40 1017.32 1017.44 1017.56 1017.76 1018.00 1018.16 1018.32 1018.40 1018.56 1018.64 1018.68 1018.72 1018.88 1018.92 1018.92 1018.96 1019.04 1019.40 1019.64 1019.72 1019.80 1019.80 1019.52 1019.80 1019.84 1020.00
1013.16 1013.52 1013.92 1014.12 1014.24 1014.36 1014.56 1014.56 1014.48 1014.40 1014.56 1014.68 1014.88 1015.20 1015.56 1015.84 1016.00 1016.12 1016.32 1016.40 1016.56 1016.68 1016.96 1017.20 1017.36 1017.40 1017.32 1017.20 1017.20 1017.20 1017.20 1017.28 1017.28 1017.36 1017.40 1017.44 1017.48 1017.64 1017.76 1018.00 1018.16 1018.28 1018.48 1018.40 1018.64 1018.76 1018.84 1018.80 1018.92 1018.84 1018.92 1018.92 1019.04 1019.24 1019.12 1019.32 1019.40 1019.44 1019.36 1019.20 1019.28 1019.52
1013.04 1013.28 1013.68 1013.92 1014.16 1014.40 1014.52 1014.60 1014.52 1014.36 1014.36 1014.56 1014.76 1015.04 1015.40 1015.72 1015.92 1016.04 1016.16 1016.32 1016.48 1016.72 1017.00 1017.24 1017.40 1017.36 1017.36 1017.24 1017.20 1017.24 1017.36 1017.40 1017.40 1017.40 1017.48 1017.52 1017.64 1017.76 1017.88 1018.08 1018.24 1018.44 1018.64 1018.60 1018.68 1018.88 1018.88 1019.00 1018.92 1018.84 1018.92 1019.00 1019.16 1019.16 1019.12 1019.04 1019.00 1019.00 1019.00 1018.96 1018.96 1019.24
Wind_Speed
5 7 6 7 7 5 4 10 11 13 12 12 12 12 12 12 10 10 10 11 13 10 5 4 4 5 7 5 6 9 9 9 9 8 8 8 7 6 5 3 2 3 4 5 5 5 5 5 5 4 7 7 6 5 6 1 5 8 8 8 8 7
6 9 8 7 5 3 3 5 7 8 8 8 10 11 9 7 9 8 12 9 6 2 2 3 1 5 3 5 7 9 9 9 8 8 7 7 6 4 3 2 3 4 5 5 6 3 4 5 6 5 6 5 3 4 6 1 5 9 9 7 7 7
7 8 10 8 5 6 6 3 6 6 6 9 9 8 7 8 8 10 7 4 4 1 3 1 1 3 4 6 7 9 9 8 8 7 7 5 5 3 2 3 5 6 6 6 4 5 4 4 4 7 5 3 4 4 5 3 6 7 8 8 7 10
7 9 10 8 6 5 5 4 5 5 5 6 7 6 7 8 8 9 6 4 4 4 2 2 1 5 6 5 5 7 8 8 8 7 7 4 3 3 4 6 7 8 5 4 4 5 6 5 5 5 4 4 4 6 2 4 5 7 7 9 8 12
9 10 10 9 8 6 5 5 6 6 6 6 6 6 7 7 6 6 5 5 7 6 4 2 0 1 2 3 4 3 4 4 4 4 7 3 1 3 4 3 4 4 4 5 6 6 8 5 6 6 6 5 6 4 4 2 7 7 6 6 7 11
11 8 7 6 8 6 7 5 6 5 6 6 7 7 7 6 6 5 4 5 6 6 6 4 4 3 1 1 1 3 4 3 4 5 5 4 5 4 1 3 4 3 5 6 8 8 5 4 4 5 6 5 3 3 3 3 7 7 6 7 7 11
8 8 7 6 6 7 7 6 7 6 4 5 5 4 6 6 5 5 5 4 4 4 7 5 5 3 1 1 1 2 4 2 2 3 1 2 2 1 3 4 4 4 4 7 6 4 2 2 3 3 3 3 3 3 2 5 7 7 6 6 7 12
9 8 6 6 8 7 5 6 5 5 6 7 5 4 4 6 5 3 3 2 3 3 1 2 5 3 2 1 1 3 2 2 1 2 2 1 2 3 3 2 2 4 5 6 4 3 3 3 2 3 3 3 5 4 2 5 6 8 6 6 6 8
11 10 7 8 9 5 4 5 6 7 8 7 5 3 4 6 6 5 4 3 4 4 3 2 4 3 2 1 2 2 2 2 2 1 1 1 1 1 0 2 3 4 5 6 6 5 2 2 0 1 2 3 3 0 9 6 5 8 6 5 5 6
10 10 8 9 7 8 6 5 6 9 7 6 4 4 4 4 4 4 5 5 4 3 3 3 3 2 4 3 2 3 2 2 1 2 1 1 2 2 1 1 1 3 4 5 5 5 2 3 3 1 2 3 1 5 8 1 2 6 7 5 5 5
9 10 9 8 7 6 7 6 7 6 5 4 5 5 5 4 4 3 3 4 4 3 2 3 3 4 3 2 2 2 2 3 3 2 2 1 1 3 2 2 2 3 3 3 4 4 6 4 1 2 2 0 3 4 8 6 2 7 5 6 5 5
8 7 6 9 7 8 8 8 7 4 3 4 6 6 4 4 4 3 4 3 2 2 3 3 3 2 3 1 2 1 3 3 4 4 3 2 3 3 4 4 3 4 1 1 2 4 5 6 3 4 1 1 4 3 6 8 7 6 4 5 5 5
6 6 6 6 5 5 4 8 10 6 6 7 5 3 4 4 4 4 3 4 4 4 3 3 3 2 4 3 2 4 2 1 2 1 1 2 1 1 1 2 3 1 0 1 3 4 4 6 7 6 0 3 1 3 9 8 7 8 4 3 6 6
8 7 7 6 6 5 3 5 8 7 6 5 3 4 5 5 4 5 5 6 5 4 3 4 4 3 6 2 5 4 3 2 1 1 2 1 0 0 1 1 2 1 2 2 1 3 5 6 7 6 9 7 6 3 8 10 6 4 3 3 4 5
9 7 7 7 6 6 4 5 4 3 4 4 3 5 4 5 5 4 3 3 4 4 4 3 4 3 6 7 5 5 4 3 2 3 3 2 0 1 1 1 2 1 1 2 2 4 4 4 7 10 10 9 4 4 8 6 3 3 3 3 2 3
10 10 8 8 8 7 6 4 4 3 2 3 3 4 3 3 3 2 3 3 3 4 3 5 4 3 3 4 6 3 3 2 2 3 2 3 2 2 1 1 1 1 0 2 3 2 4 4 6 7 6 6 5 5 6 6 5 5 4 3 4 4
9 10 10 8 9 8 6 6 4 3 2 1 2 2 3 2 3 4 2 3 3 4 2 3 3 3 3 3 1 4 2 2 2 3 3 3 2 1 2 2 0 0 1 2 2 2 4 4 6 6 3 6 6 3 4 5 4 4 4 5 4 4
7 7 7 7 7 7 7 6 4 3 2 2 2 2 2 2 3 2 3 3 3 4 2 3 4 3 5 4 1 4 3 4 3 3 4 3 3 2 2 0 1 1 2 1 1 3 5 5 4 6 1 6 4 2 3 4 4 3 4 5 5 3
9 8 7 6 6 7 7 6 2 3 3 0 1 1 2 2 3 3 3 3 4 5 5 3 4 4 6 4 3 4 4 4 2 3 3 3 2 2 2 2 2 3 2 2 2 3 3 5 6 5 2 7 4 2 2 1 4 4 4 6 5 4
9 8 8 6 5 5 4 3 3 4 3 1 2 2 1 2 3 2 2 4 4 3 5 4 3 5 6 4 3 5 4 4 4 3 4 4 4 4 4 4 3 3 4 2 3 2 4 5 6 7 4 7 0 1 1 2 2 3 4 5 5 4
8 7 7 5 4 5 5 3 3 2 3 4 3 2 3 3 2 4 3 5 4 4 3 5 4 5 3 4 3 4 4 3 3 4 3 2 3 3 2 1 2 2 2 2 2 2 3 3 7 3 3 6 2 3 2 2 0 2 4 4 5 5
8 7 6 5 4 3 3 4 4 5 3 3 4 3 3 4 4 3 4 3 2 3 4 3 5 6 3 3 2 3 4 3 2 1 2 3 2 2 3 2 1 2 1 1 2 3 3 3 5 4 4 2 3 1 1 1 1 0 3 4 7 6
8 7 5 5 5 3 3 2 2 2 4 3 3 3 4 4 3 3 2 3 2 3 3 4 3 7 5 4 4 3 3 3 2 2 3 3 3 3 2 2 2 1 3 2 2 2 2 2 4 5 3 3 1 2 1 0 1 6 7 3 3 5
9 7 6 4 6 7 6 5 8 2 5 3 4 5 5 3 3 4 4 3 2 1 1 4 7 7 6 5 2 0 2 3 3 2 2 3 4 4 3 2 2 2 4 1 1 2 2 1 1 6 3 1 1 1 2 0 2 3 3 4 4 4
9 7 6 7 7 5 8 9 6 3 7 6 4 3 3 3 3 3 4 3 3 3 2 3 2 3 6 7 9 6 4 2 2 3 2 3 3 3 3 2 2 3 3 2 1 1 1 1 1 1 3 3 2 0 0 2 3 2 1 3 1 7
8 8 8 9 8 6 7 8 7 4 3 3 3 3 3 3 3 4 4 4 4 2 3 1 2 4 3 2 4 7 7 6 4 3 3 2 3 3 4 4 3 3 4 2 3 0 2 3 1 0 1 1 0 1 4 2 1 1 1 2 3 2
8 8 8 9 8 5 6 7 5 1 2 3 4 2 3 2 3 4 3 3 3 2 3 2 2 3 2 2 2 1 1 6 8 6 5 3 3 5 5 6 5 4 4 5 5 4 1 1 2 0 1 1 1 1 4 4 2 5 5 2 2 4
8 8 7 8 8 7 6 6 8 5 4 4 2 4 3 3 3 3 3 4 3 2 4 4 2 2 3 2 1 2 0 2 2 7 6 6 5 3 2 3 6 4 3 5 4 4 4 3 2 1 2 1 2 2 2 3 2 1 5 6 4 5
10 10 9 8 8 7 7 10 7 12 6 3 4 3 3 3 3 2 2 3 2 3 4 3 3 1 2 2 3 2 2 2 4 3 5 4 2 1 2 3 3 4 2 5 5 2 4 4 3 2 3 1 1 1 2 2 2 2 3 6 6 4
11 10 9 9 10 8 11 8 4 9 6 4 4 3 3 3 3 2 2 2 3 4 4 1 2 3 2 3 2 2 3 1 3 5 5 3 3 3 2 3 2 3 3 4 5 4 5 4 3 4 4 3 2 0 4 3 2 2 3 3 5 6
16 13 12 11 10 9 9 8 7 7 5 4 3 3 4 4 3 2 2 2 3 4 3 4 2 1 2 2 3 3 2 2 3 3 2 3 3 3 4 4 3 2 3 5 4 4 5 6 4 3 4 5 4 2 3 2 3 1 1 2 4 5
3 9 12 12 12 11 9 6 6 4 4 3 3 4 3 4 4 3 3 3 2 4 4 3 3 3 3 2 3 3 3 4 3 2 2 1 2 4 4 4 3 3 4 5 3 4 4 5 5 4 4 5 5 4 3 3 3 2 4 3 4 6
9 6 10 11 14 15 12 10 8 8 5 4 3 3 3 3 3 3 3 3 3 3 4 3 4 3 0 1 2 3 4 4 3 4 3 2 2 6 4 3 4 5 5 6 4 3 3 4 5 5 5 6 5 3 1 3 4 4 3 3 2 7
10 8 10 10 10 13 13 12 11 9 8 7 5 4 3 2 2 3 2 2 2 3 4 3 3 2 1 2 4 5 4 4 4 3 2 3 3 3 4 5 5 5 5 5 5 5 4 4 4 4 6 7 10 9 7 6 5 5 5 3 5 4
10 8 8 10 10 9 7 9 8 7 8 6 7 5 5 3 2 2 2 2 2 2 4 4 4 2 2 2 2 3 3 5 5 3 2 1 2 5 6 6 4 4 5 4 4 3 3 3 3 3 3 3 4 7 8 7 4 4 5 7 4 6
11 9 9 11 10 9 7 5 4 8 9 7 7 6 6 4 2 2 1 1 2 3 5 5 4 2 2 2 3 4 4 3 3 3 1 1 3 4 4 4 3 4 4 3 5 6 5 4 3 2 3 4 5 5 4 5 6 4 4 3 3 6
11 11 9 9 9 7 6 5 4 5 6 6 7 6 7 4 4 2 2 2 2 5 5 4 3 3 3 3 3 3 4 4 3 3 3 3 3 3 4 4 5 6 6 5 6 6 4 4 4 4 5 5 5 4 5 4 5 4 5 4 4 4
Wind_Direction
124 127 112 111 121 92 110 133 129 130 129 125 120 121 115 113 114 110 98 70 42 13 22 98 122 124 136 139 122 130 136 138 134 136 134 135 130 131 133 162 188 216 212 221 211 213 211 212 208 220 258 280 299 303 277 261 88 94 96 101 109 113
140 141 130 113 118 136 173 135 137 138 130 129 127 125 125 119 107 82 67 61 84 105 274 342 59 143 140 129 132 137 140 140 141 138 133 126 124 124 136 188 252 259 249 249 241 229 223 222 223 217 246 265 287 273 280 351 77 99 103 102 109 119
156 156 136 109 140 174 171 173 147 147 142 140 138 136 115 105 76 81 80 86 103 224 189 192 270 178 150 131 132 144 143 143 138 132 124 119 122 144 187 231 247 258 267 272 263 253 222 189 201 214 217 238 252 263 266 63 82 100 109 114 112 119
160 159 140 133 168 179 159 188 169 154 142 143 142 121 105 93 89 101 119 137 154 184 123 215 183 162 134 120 137 140 141 141 138 134 129 134 155 184 221 239 253 258 268 254 243 246 236 187 175 179 197 218 229 247 233 173 114 97 108 118 122 121
176 153 145 139 166 174 157 180 168 149 152 150 130 101 95 105 102 123 157 161 170 157 149 194 39 205 127 156 147 153 146 159 152 137 164 136 169 229 206 236 238 238 246 246 234 235 246 192 163 174 188 202 214 223 214 116 97 104 102 108 116 117
152 137 128 152 160 164 158 170 161 173 156 152 117 111 116 116 130 155 180 184 158 154 156 166 170 162 93 18 152 156 166 138 136 153 184 166 190 186 233 286 277 248 224 239 239 229 243 165 178 183 176 191 179 196 241 99 95 98 99 107 114 112
137 143 150 172 149 159 171 163 170 171 153 92 74 142 127 134 152 169 189 189 127 166 171 163 148 139 93 59 47 25 45 32 69 72 274 175 206 201 222 227 239 273 279 277 279 284 278 270 217 184 180 155 196 201 199 96 108 107 108 111 115 117
134 131 159 163 152 167 161 158 148 140 80 72 132 175 155 139 149 172 190 104 100 163 97 95 110 94 108 97 33 61 71 60 43 213 207 193 189 191 249 255 282 269 282 286 289 253 244 231 177 250 189 172 189 200 139 97 103 110 113 115 118 117
141 148 163 161 161 140 147 153 137 116 114 159 184 135 166 145 158 164 164 119 139 153 153 131 130 137 126 135 95 124 135 130 171 196 171 190 188 109 42 354 352 315 295 303 271 273 304 280 164 287 211 112 261 120 53 30 85 113 110 115 117 118
141 144 161 161 151 147 146 121 73 80 140 167 125 177 180 158 150 148 145 142 175 144 146 145 121 145 143 145 155 151 152 175 177 148 203 151 125 130 105 69 281 279 294 290 325 313 332 298 147 274 293 138 286 76 108 335 1 97 118 116 114 116
137 152 164 153 139 131 123 108 100 125 165 142 165 190 192 159 134 127 123 155 164 149 152 132 147 153 132 127 148 146 166 171 162 161 191 129 139 130 155 184 206 239 266 308 312 314 331 296 236 163 225 199 135 109 128 133 359 31 74 111 127 131
150 146 139 133 129 137 143 128 109 146 164 179 185 184 147 111 100 120 147 151 123 145 188 134 151 156 117 114 79 251 190 177 161 186 169 157 190 151 172 183 201 222 220 328 324 330 329 314 359 264 158 182 108 68 95 63 35 79 251 148 135 124
137 127 113 112 105 86 84 124 129 170 193 175 180 143 120 121 144 158 154 162 162 176 171 136 143 170 119 54 6 267 274 176 145 179 149 158 165 175 180 186 222 137 139 5 9 328 345 0 343 344 230 153 80 156 80 100 150 198 183 104 125 133
131 128 128 113 106 92 81 116 143 163 163 147 135 136 143 149 162 161 174 169 157 161 184 161 163 155 103 153 233 238 246 214 145 131 90 31 320 6 283 245 246 137 52 45 28 13 13 17 336 351 1 351 66 21 103 127 157 147 68 90 114 136
124 129 128 126 120 118 145 117 115 113 127 138 149 144 156 158 164 170 172 157 161 167 181 153 160 174 143 181 198 205 176 173 180 133 132 168 209 173 311 297 4 360 47 58 16 53 50 34 23 349 0 338 35 78 76 87 135 145 112 86 64 46
134 135 129 129 121 109 88 84 95 110 91 129 145 153 146 170 151 132 158 154 157 164 190 170 183 173 137 180 216 154 179 134 178 125 153 165 188 161 160 55 19 2 22 69 25 28 56 65 66 48 347 334 312 46 82 119 124 113 113 111 82 30
140 127 128 123 117 120 120 109 112 98 140 167 114 115 157 175 162 158 168 133 151 142 175 149 162 154 116 286 144 106 128 175 181 159 146 163 182 156 173 170 82 23 79 50 37 24 56 32 58 80 328 277 334 10 68 80 85 81 92 93 106 123
133 123 117 113 118 117 110 114 125 155 128 96 127 178 146 195 135 124 147 125 144 136 148 162 161 166 114 229 192 121 154 178 183 156 167 156 127 179 114 100 137 80 64 73 53 43 64 69 56 84 274 270 267 44 66 85 102 123 122 113 98 90
137 127 104 100 100 105 109 107 130 147 122 188 77 174 209 165 116 128 116 127 152 147 158 154 181 151 137 196 196 124 163 163 172 190 139 119 90 126 138 156 170 124 99 93 103 71 85 87 79 88 309 268 270 63 19 81 122 114 97 104 116 118
130 117 106 105 115 104 95 129 137 76 51 316 232 182 158 81 86 102 127 139 142 151 153 162 160 137 147 168 154 151 158 165 181 168 155 161 157 162 179 173 166 142 126 121 88 104 78 85 96 91 243 268 318 26 327 7 35 95 125 123 148 146
130 120 113 135 132 127 128 134 70 116 178 189 152 137 143 151 158 111 158 146 145 141 146 147 142 106 148 164 160 141 148 180 204 181 167 145 152 156 177 193 131 104 121 117 120 115 103 100 97 101 210 285 360 52 7 319 135 149 114 131 134 130
125 118 126 133 123 113 115 131 153 176 150 126 124 154 106 63 61 59 42 53 80 105 123 125 130 145 148 170 162 146 164 190 197 172 145 156 161 165 172 167 182 123 136 90 83 97 117 140 114 175 166 276 333 94 38 346 6 89 118 47 40 28
120 124 131 119 120 79 42 19 139 128 131 126 157 129 111 113 126 120 92 89 97 132 141 123 139 136 149 174 161 166 169 183 189 175 164 151 159 166 191 186 152 119 104 108 111 115 136 233 133 135 128 136 303 47 114 74 14 40 51 112 148 117
125 122 116 89 60 44 25 26 354 343 88 96 83 81 97 116 110 139 153 139 88 8 118 147 157 143 134 132 71 170 201 180 190 209 173 161 167 153 169 189 159 136 98 101 220 123 124 297 116 128 136 152 137 292 116 7 70 66 69 118 65 110
122 120 102 80 69 58 56 38 269 63 78 81 81 94 124 135 149 120 113 127 128 164 120 70 349 117 138 153 161 175 177 160 220 193 195 165 172 164 176 174 170 125 136 140 167 98 104 263 257 271 114 126 114 298 299 119 136 33 9 77 97 105
113 108 98 85 82 81 89 109 275 77 99 110 131 177 148 117 135 182 138 124 151 110 68 34 90 52 71 125 160 160 167 163 173 195 202 183 174 171 192 170 172 141 152 166 83 292 138 172 227 266 10 48 24 159 145 127 90 116 328 47 42 176
104 100 99 92 89 84 110 112 267 156 174 174 163 156 130 156 109 96 118 100 78 102 109 64 80 102 85 65 47 77 197 168 167 182 188 192 185 203 193 169 157 174 163 130 152 163 220 300 83 245 124 35 34 20 105 120 118 130 101 34 65 71
104 106 98 106 106 120 106 66 342 296 192 186 132 119 132 90 91 96 100 122 134 165 139 146 136 136 148 117 172 146 158 12 211 172 166 171 169 204 194 135 140 153 150 141 151 108 167 202 178 131 62 90 37 49 75 15 90 125 131 127 102 61
122 112 111 113 122 104 83 65 29 305 280 99 117 129 121 121 115 116 124 186 154 100 63 35 108 132 72 124 123 99 23 30 347 8 102 82 43 64 48 96 124 130 132 95 88 139 148 166 134 117 97 33 359 63 77 54 58 53 106 127 111 99
124 125 131 137 130 133 102 103 125 285 257 134 157 154 128 112 105 173 156 79 87 112 117 147 20 33 72 74 19 91 88 41 30 51 62 71 106 83 51 46 66 93 101 108 124 153 134 131 116 116 131 89 71 30 56 28 17 36 47 38 127 130
146 144 143 141 139 131 121 143 164 216 246 153 160 130 117 135 148 146 140 165 168 148 135 104 102 66 105 111 89 49 108 94 49 21 61 104 83 92 98 96 49 85 102 106 100 106 99 103 120 111 92 113 132 186 142 144 186 146 124 154 138 126
111 139 146 143 141 132 134 150 171 196 251 135 126 129 151 148 167 163 169 183 126 113 110 135 125 115 49 53 100 114 45 56 50 56 53 10 126 119 104 102 133 95 92 106 111 95 91 113 125 129 122 109 129 177 127 154 184 127 148 199 153 156
148 146 143 153 150 144 152 166 177 192 185 135 145 143 155 161 177 150 183 149 161 121 129 147 129 89 20 134 146 133 120 108 77 21 19 67 77 77 68 75 83 90 80 87 96 90 103 107 131 142 145 135 137 142 240 168 148 146 218 217 185 164
154 162 149 155 151 148 160 167 183 177 151 155 138 147 161 169 172 159 165 144 169 137 125 117 107 111 199 101 72 66 73 88 112 101 67 21 26 91 115 96 74 77 85 102 102 112 125 142 159 171 154 163 172 166 172 168 160 156 189 200 219 152
147 156 145 145 147 152 171 177 182 155 143 151 145 155 163 158 183 133 126 196 99 108 113 99 88 79 56 115 132 128 113 86 62 67 47 30 74 64 58 68 70 78 86 101 117 119 112 102 101 107 130 146 125 136 157 168 165 190 186 206 207 131
148 141 152 155 156 165 168 166 194 144 158 159 151 156 138 152 137 128 154 116 89 92 95 91 107 139 141 86 84 88 87 109 115 109 141 130 78 79 93 99 112 114 111 121 116 105 99 95 90 73 73 68 64 50 66 121 163 164 194 190 133 114
146 148 149 154 151 154 155 150 135 122 136 144 156 149 141 145 130 127 103 92 102 96 98 107 117 127 132 136 108 90 86 85 90 71 60 67 92 93 93 91 75 71 67 64 79 88 91 92 96 101 106 106 103 81 53 46 40 31 36 33 49 57